User: anonymous
Location: Caltech
(34.1382°N, 118.1253°W)
Time: 10:38:15
(UTC-07:00)
Language:

Cosmos 1606 - Orbit

View from above orbital plane
View from above orbital plane
View from above satellite
View from above satellite

Ground track
Ground track

The orbit data is extracted from the following two-line orbital elements,

1 15369U 84111A   14202.81235930  .00001431  00000-0  85035-4 0  5764
2 15369 082.5311 083.7027 0018993 332.8239 027.1994 15.10374387619886
Epoch (UTC): 21 July 2014 19:29:47
Eccentricity: 0.0018993
inclination: 82.5311°
perigee height: 522 km
apogee height: 548 km
right ascension of ascending node: 83.7027°
argument of perigee: 332.8239°
revolutions per day: 15.10374387
mean anomaly at epoch: 27.1994°
orbit number at epoch: 61988

The dashed part of the orbit path shows where the satellite is in the earth's shadow,  

DLR